GW2260 Weather Reports


Display with metric or nautical units.
time (UTC)temp
F
wind
direction
speed
MPH
gust
MPH
rain 1hr
in
rain 24hr
in
rain mn
in
humidity
%
barometer
mb
20260508082018 61 103 1.0 3.0 0.00 0.00 0.00 92 1021.7
20260508081553 61 90 2.0 6.0 0.00 0.00 0.00 91 1021.6
20260508081039 61 91 1.0 2.0 0.00 0.00 0.00 94 1021.7
20260508080053 61 119 1.0 2.0 0.00 0.00 0.00 93 1021.7
20260508080018 61 105 1.0 2.0 0.00 0.00 0.00 93 1021.8
20260508075018 61 100 1.0 2.0 0.00 0.00 0.00 92 1021.9
20260508074542 60 101 1.0 4.0 0.00 0.00 0.00 92 1021.8
20260508074018 61 134 2.0 4.0 0.00 0.00 0.00 92 1021.8
20260508073057 61 98 1.0 2.0 0.00 0.00 0.00 93 1021.7
20260508073018 61 97 2.0 2.0 0.00 0.00 0.00 94 1021.7
20260508072018 63 0.0 0.0 0.00 0.00 0.00 97 1021.7
20260508071544 62 0 0.0 2.0 0.00 0.00 0.00 96 1021.6
20260508071018 63 322 0.0 2.0 0.00 0.00 0.00 97 1021.6
20260508070044 62 40 1.0 4.0 0.00 0.00 0.00 96 1021.4
20260508070017 63 39 2.0 2.0 0.00 0.00 0.00 97 1021.4
20260508065018 63 12 1.0 3.0 0.00 0.00 0.00 97 1021.5
20260508064603 63 5 1.0 3.0 0.00 0.00 0.00 96 1021.3
20260508064018 63 330 2.0 3.0 0.00 0.00 0.00 97 1021.4
20260508063045 62 360 0.0 3.0 0.00 0.00 0.00 96 1021.2
20260508063018 63 360 1.0 2.0 0.00 0.00 0.00 97 1021.2
20260508062017 63 353 2.0 3.0 0.00 0.00 0.00 97 1021.1
20260508061544 62 0 1.0 3.0 0.00 0.00 0.00 96 1020.9
20260508061018 63 356 2.0 3.0 0.00 0.00 0.00 97 1020.8
20260508060044 62 39 1.0 3.0 0.00 0.00 0.00 96 1020.5
20260508060039 63 34 1.0 2.0 0.00 0.00 0.00 96 1020.6
20260508055018 63 20 1.0 2.0 0.00 0.00 0.00 96 1020.4
20260508054600 62 360 0.0 2.0 0.00 0.00 0.00 96 1020.2
20260508054017 63 348 0.0 2.0 0.00 0.00 0.00 96 1020.2
20260508053039 62 349 1.0 4.0 0.00 0.00 0.00 95 1020.0
20260508053017 63 11 2.0 4.0 0.00 0.00 0.00 96 1020.1
20260508052017 63 0.0 2.0 0.00 0.00 0.00 95 1019.9
20260508051545 63 273 0.0 3.0 0.00 0.00 0.00 94 1019.9
20260508051018 63 198 1.0 2.0 0.00 0.00 0.00 94 1019.9
20260508050048 63 161 1.0 3.0 0.00 0.00 0.00 93 1019.6
20260508050038 64 184 1.0 2.0 0.00 0.00 0.00 93 1019.7
20260508045017 64 201 1.0 3.0 0.00 0.00 0.00 93 1019.7
20260508044541 64 209 1.0 7.0 0.00 0.00 0.00 91 1019.6
20260508044017 65 195 2.0 5.0 0.00 0.00 0.00 91 1019.5
20260508043041 65 186 2.0 8.0 0.00 0.00 0.00 91 1019.4
20260508043018 65 216 3.0 4.0 0.00 0.00 0.00 91 1019.4
20260508042017 66 197 3.0 7.0 0.00 0.00 0.00 91 1019.5
20260508041537 66 175 2.0 6.0 0.00 0.00 0.00 91 1019.4
20260508041121 66 219 3.0 6.0 0.00 0.00 0.00 91 1019.4
20260508040047 67 198 2.0 5.0 0.00 0.00 0.00 90 1019.4
20260508040018 67 216 3.0 4.0 0.00 0.00 0.00 90 1019.4
20260508035017 68 213 1.0 5.0 0.00 0.00 0.00 90 1019.3
20260508034542 68 196 1.0 6.0 0.00 0.00 0.00 89 1019.3
20260508034018 68 209 2.0 4.0 0.00 0.00 0.00 89 1019.3
20260508033042 69 196 2.0 10.0 0.00 0.00 0.00 87 1019.2
20260508033017 69 243 2.0 6.0 0.00 0.00 0.00 88 1019.2
20260508032100 70 202 5.0 8.0 0.00 0.00 0.00 87 1019.2
20260508031541 70 193 3.0 8.0 0.00 0.00 0.00 85 1019.0
20260508031018 71 242 3.0 8.0 0.00 0.00 0.00 85 1019.0
20260508030100 71 279 1.0 4.0 0.00 0.00 0.00 85 1018.9
20260508030046 71 233 1.0 7.0 0.00 0.00 0.00 84 1018.9
20260508025017 72 227 3.0 6.0 0.00 0.00 0.00 84 1018.8
20260508024555 71 352 2.0 7.0 0.00 0.00 0.00 85 1018.7
20260508024018 72 248 2.0 4.0 0.00 0.00 0.00 84 1018.9
20260508023042 72 341 2.0 7.0 0.00 0.00 0.00 84 1018.8
20260508023017 72 275 1.0 7.0 0.00 0.00 0.00 82 1019.0
20260508022018 72 306 3.0 6.0 0.00 0.00 0.00 85 1019.1
20260508021542 71 172 2.0 10.0 0.00 0.00 0.00 85 1019.0
20260508021018 71 305 3.0 7.0 0.00 0.00 0.00 84 1019.1
20260508020046 72 252 2.0 7.0 0.00 0.00 0.00 83 1019.2
20260508020017 72 278 3.0 7.0 0.00 0.00 0.00 82 1019.3
20260508015018 72 289 3.0 4.0 0.00 0.00 0.00 81 1019.3
20260508014541 72 207 3.0 9.0 0.00 0.00 0.00 83 1019.2
20260508014017 71 261 3.0 5.0 0.00 0.00 0.00 83 1019.3
20260508013038 71 247 4.0 7.0 0.00 0.00 0.00 84 1019.4
20260508012039 71 307 2.0 6.0 0.00 0.00 0.00 82 1019.5
20260508011551 70 309 1.0 8.0 0.00 0.00 0.00 83 1019.6
20260508011017 71 300 1.0 3.0 0.00 0.00 0.00 83 1019.6
20260508010052 71 212 1.0 8.0 0.00 0.00 0.00 81 1019.6
20260508010017 72 280 1.0 5.0 0.00 0.00 0.00 82 1019.7
20260508005017 71 232 2.0 7.0 0.00 0.00 0.00 82 1019.7
20260508004555 71 174 3.0 9.0 0.00 0.00 0.00 82 1019.7
20260508004017 71 297 4.0 9.0 0.00 0.00 0.00 84 1019.8
20260508003044 70 331 2.0 8.0 0.00 0.00 0.00 83 1019.8
20260508003017 70 272 3.0 6.0 0.00 0.00 0.00 83 1019.9
20260508002017 71 232 3.0 8.0 0.00 0.00 0.00 83 1019.8
20260508001542 70 285 2.0 12.0 0.00 0.00 0.00 84 1019.9
20260508001017 71 288 6.0 12.0 0.00 0.00 0.00 83 1019.9
20260508000041 71 82 2.0 8.0 0.00 0.00 0.00 85 1020.0
20260508000038 71 292 2.0 5.0 0.00 0.00 0.00 85 1020.0
20260507235017 71 351 2.0 4.0 0.00 0.00 0.00 84 1020.2
20260507234540 71 206 2.0 11.0 0.00 0.00 0.00 85 1020.2
20260507234018 71 242 4.0 11.0 0.00 0.00 0.00 83 1020.4
20260507233047 70 321 2.0 8.0 0.00 0.00 0.00 84 1020.3
20260507233017 70 284 2.0 4.0 0.00 0.00 0.00 84 1020.4
20260507232017 70 240 3.0 7.0 0.00 0.00 0.00 85 1020.6
20260507231550 70 352 3.0 9.0 0.00 0.00 0.00 85 1020.5
20260507231017 71 242 3.0 5.0 0.00 0.00 0.00 86 1020.6
20260507230042 70 238 2.0 11.0 0.00 0.00 0.00 86 1020.6
20260507230017 71 276 2.0 6.0 0.00 0.00 0.00 86 1020.7
20260507225017 70 218 3.0 7.0 0.00 0.00 0.00 87 1020.6
20260507224553 70 304 3.0 7.0 0.00 0.00 0.00 86 1020.7
20260507224101 70 218 2.0 5.0 0.00 0.00 0.00 86 1020.7
20260507223041 67 197 2.0 7.0 0.00 0.00 0.00 88 1020.7
20260507223017 68 226 2.0 6.0 0.00 0.00 0.00 89 1020.8
20260507222018 67 237 3.0 6.0 0.00 0.00 0.00 92 1020.8
20260507221543 67 161 4.0 8.0 0.00 0.00 0.00 90 1020.8
20260507221017 68 133 2.0 5.0 0.00 0.00 0.00 90 1020.9
20260507220042 69 220 2.0 6.0 0.00 0.00 0.00 88 1020.9
20260507220039 69 209 2.0 6.0 0.00 0.00 0.00 87 1020.9
20260507215018 69 330 3.0 9.0 0.00 0.00 0.00 85 1020.8
20260507214541 69 241 2.0 6.0 0.00 0.00 0.00 89 1020.8
20260507214017 68 225 2.0 3.0 0.00 0.00 0.00 90 1021.0
20260507213045 67 87 1.0 7.0 0.00 0.00 0.00 94 1021.1
20260507213017 67 300 1.0 5.0 0.00 0.00 0.00 94 1021.2
20260507212039 67 224 3.0 5.0 0.00 0.00 0.00 94 1021.3
20260507211545 67 0 3.0 8.0 0.00 0.00 0.00 92 1021.3
20260507211017 67 254 2.0 3.0 0.00 0.00 0.00 92 1021.4
20260507210051 68 0 3.0 6.0 0.00 0.00 0.00 90 1021.5
20260507210018 68 215 2.0 6.0 0.00 0.00 0.00 90 1021.5
20260507205017 69 238 0.0 2.0 0.00 0.00 0.00 88 1021.5
20260507204555 69 0 1.0 4.0 0.00 0.00 0.00 80 1021.5
20260507204017 69 172 1.0 2.0 0.00 0.00 0.00 82 1021.6
20260507203042 68 178 0.0 2.0 0.00 0.00 0.00 80 1021.7
20260507203017 68 274 0.0 1.0 0.00 0.00 0.00 81 1021.7
20260507202019 68 223 0.0 2.0 0.00 0.00 0.00 84 1021.7
20260507201542 67 161 1.0 3.0 0.00 0.00 0.00 82 1021.6
20260507201018 67 275 1.0 2.0 0.00 0.00 0.00 84 1021.7
20260507200046 67 0 0.0 4.0 0.00 0.00 0.00 84 1021.6
20260507200018 67 202 0.0 1.0 0.00 0.00 0.00 84 1021.7
20260507195017 68 267 1.0 2.0 0.00 0.00 0.00 84 1021.7
20260507194541 68 182 1.0 4.0 0.00 0.00 0.00 85 1021.6
20260507194017 68 321 2.0 4.0 0.00 0.00 0.00 85 1021.6
20260507193041 67 346 2.0 7.0 0.00 0.00 0.00 84 1021.6
20260507193017 68 328 3.0 5.0 0.00 0.00 0.00 85 1021.7
20260507192017 69 327 3.0 5.0 0.00 0.00 0.00 83 1021.6
20260507191540 69 342 1.0 5.0 0.00 0.00 0.00 82 1021.5
20260507191038 69 280 1.0 2.0 0.00 0.00 0.00 82 1021.5
20260507190050 69 294 1.0 4.0 0.00 0.00 0.00 79 1021.5
20260507190017 69 317 1.0 3.0 0.00 0.00 0.00 78 1021.5
20260507185038 69 335 2.0 4.0 0.00 0.00 0.00 74 1021.4
20260507184542 69 294 0.0 3.0 0.00 0.00 0.00 77 1021.3
20260507184018 68 352 1.0 1.0 0.00 0.00 0.00 76 1021.3
20260507183047 67 296 0.0 3.0 0.00 0.00 0.00 78 1021.3
20260507183039 68 286 1.0 1.0 0.00 0.00 0.00 79 1021.3
20260507182017 67 290 1.0 2.0 0.00 0.00 0.00 79 1021.3
20260507181540 67 22 1.0 3.0 0.00 0.00 0.00 78 1021.0
20260507181017 68 259 0.0 1.0 0.00 0.00 0.00 78 1021.2
20260507180052 67 0 0.0 2.0 0.00 0.00 0.00 77 1020.9
20260507180018 67 290 0.0 1.0 0.00 0.00 0.00 77 1021.0
20260507175018 67 314 1.0 2.0 0.00 0.00 0.00 75 1020.9
20260507174546 66 296 0.0 2.0 0.00 0.00 0.00 77 1020.9
20260507174018 66 325 0.0 1.0 0.00 0.00 0.00 79 1020.9
20260507173051 63 0 0.0 4.0 0.00 0.00 0.00 76 1020.8
20260507173017 63 90 0.0 2.0 0.00 0.00 0.00 77 1020.8
20260507172017 61 53 1.0 3.0 0.00 0.00 0.00 80 1020.7
20260507171543 60 105 1.0 6.0 0.00 0.00 0.00 81 1020.4
20260507171018 60 114 2.0 3.0 0.00 0.00 0.00 82 1020.4
20260507170041 59 45 1.0 6.0 0.00 0.00 0.00 82 1020.2
20260507170017 59 106 3.0 3.0 0.00 0.00 0.00 83 1020.2
20260507165018 58 103 2.0 3.0 0.00 0.00 0.00 84 1020.1
20260507164540 58 115 1.0 4.0 0.00 0.00 0.00 83 1020.2
20260507164018 58 109 3.0 3.0 0.00 0.00 0.00 83 1020.1
20260507163037 57 109 2.0 4.0 0.00 0.00 0.00 83 1019.9
20260507163018 58 108 2.0 3.0 0.00 0.00 0.00 83 1020.0
20260507162018 58 110 2.0 3.0 0.00 0.00 0.00 83 1019.8
20260507161545 57 139 2.0 4.0 0.00 0.00 0.00 82 1019.8
20260507161017 58 110 2.0 3.0 0.00 0.00 0.00 83 1019.8
20260507160051 57 110 2.0 4.0 0.00 0.00 0.00 83 1019.6
20260507160017 58 103 3.0 3.0 0.00 0.00 0.00 83 1019.6
20260507155017 58 100 2.0 4.0 0.00 0.00 0.00 84 1019.6
20260507154542 57 103 2.0 4.0 0.00 0.00 0.00 84 1019.5
20260507154017 58 101 2.0 3.0 0.00 0.00 0.00 84 1019.6
20260507153049 57 107 2.0 4.0 0.00 0.00 0.00 83 1019.5
20260507153018 58 110 3.0 3.0 0.00 0.00 0.00 83 1019.5
20260507152017 58 110 2.0 3.0 0.00 0.00 0.00 84 1019.5
20260507151541 58 111 2.0 3.0 0.00 0.00 0.00 84 1019.5
20260507151038 58 117 2.0 3.0 0.00 0.00 0.00 84 1019.5
20260507150040 58 105 2.0 4.0 0.00 0.00 0.00 82 1019.3
20260507150017 58 105 2.0 3.0 0.00 0.00 0.00 83 1019.4
20260507145100 58 103 3.0 3.0 0.00 0.00 0.00 84 1019.3
20260507144547 57 119 2.0 3.0 0.00 0.00 0.00 83 1019.2
20260507144038 58 120 2.0 3.0 0.00 0.00 0.00 84 1019.3
20260507143042 57 111 2.0 3.0 0.00 0.00 0.00 83 1019.3
20260507143018 58 111 2.0 3.0 0.00 0.00 0.00 83 1019.3
20260507142017 58 110 2.0 3.0 0.00 0.00 0.00 81 1019.2
20260507141541 57 111 2.0 4.0 0.00 0.00 0.00 82 1019.2
20260507141017 58 121 2.0 4.0 0.00 0.00 0.00 83 1019.1
20260507140106 58 113 2.0 4.0 0.00 0.00 0.00 82 1019.2
20260507140018 58 106 3.0 3.0 0.00 0.00 0.00 82 1019.2
20260507135038 58 105 3.0 3.0 0.00 0.00 0.00 82 1019.2
20260507134544 57 110 2.0 4.0 0.00 0.00 0.00 82 1019.1
20260507134018 58 116 3.0 3.0 0.00 0.00 0.00 81 1019.1
20260507133042 57 104 2.0 6.0 0.00 0.00 0.00 81 1019.0
20260507133018 58 99 3.0 6.0 0.00 0.00 0.00 81 1019.1
20260507132017 58 116 2.0 4.0 0.00 0.00 0.00 82 1019.1
20260507131543 57 115 2.0 3.0 0.00 0.00 0.00 82 1019.0
20260507131017 58 114 2.0 3.0 0.00 0.00 0.00 82 1019.2
20260507130059 58 115 3.0 3.0 0.00 0.00 0.00 81 1019.0
20260507130050 58 119 2.0 4.0 0.00 0.00 0.00 81 1019.1
20260507125017 58 110 3.0 4.0 0.00 0.00 0.00 83 1019.1
20260507124543 58 121 2.0 4.0 0.00 0.00 0.00 83 1019.0
20260507124017 58 127 3.0 4.0 0.00 0.00 0.00 84 1019.3
20260507123052 58 115 1.0 3.0 0.00 0.00 0.00 83 1019.3
20260507123039 58 117 2.0 3.0 0.00 0.00 0.00 83 1019.4
20260507122017 59 104 2.0 3.0 0.00 0.00 0.00 83 1019.4
20260507121547 58 105 2.0 4.0 0.00 0.00 0.00 83 1019.4
20260507121017 59 124 3.0 4.0 0.00 0.00 0.00 83 1019.4
20260507120044 58 103 2.0 4.0 0.00 0.00 0.00 82 1019.4
20260507120017 59 112 2.0 4.0 0.00 0.00 0.00 83 1019.5
20260507115038 59 106 2.0 3.0 0.00 0.00 0.00 82 1019.6
20260507114545 59 103 2.0 4.0 0.00 0.00 0.00 82 1019.7
20260507114018 59 116 3.0 4.0 0.00 0.00 0.00 83 1019.7
20260507113039 59 119 2.0 6.0 0.00 0.00 0.00 82 1019.8
20260507113018 59 102 2.0 6.0 0.00 0.00 0.00 83 1019.8
20260507112018 59 113 2.0 3.0 0.00 0.00 0.00 83 1019.9
20260507111548 59 112 2.0 3.0 0.00 0.00 0.00 82 1019.9
20260507111017 60 116 2.0 3.0 0.00 0.00 0.00 83 1020.0
20260507110046 59 118 2.0 4.0 0.00 0.00 0.00 83 1019.9
20260507110017 59 118 2.0 4.0 0.00 0.00 0.00 83 1020.0
20260507105040 59 113 3.0 3.0 0.00 0.00 0.00 84 1020.1
20260507104542 59 118 2.0 4.0 0.00 0.00 0.00 83 1020.0
20260507104019 59 123 3.0 4.0 0.00 0.00 0.00 84 1020.1
20260507103041 58 101 2.0 4.0 0.00 0.00 0.00 85 1020.2
20260507103019 59 113 3.0 4.0 0.00 0.00 0.00 85 1020.3
20260507102019 59 115 2.0 3.0 0.00 0.00 0.00 84 1020.4
20260507101544 59 138 2.0 4.0 0.00 0.00 0.00 84 1020.4
20260507101019 59 109 2.0 3.0 0.00 0.00 0.00 84 1020.5
20260507100045 59 127 2.0 4.0 0.00 0.00 0.00 83 1020.4
20260507100019 60 130 3.0 4.0 0.00 0.00 0.00 83 1020.5
20260507095019 60 104 2.0 4.0 0.00 0.00 0.00 82 1020.5
20260507094542 60 109 3.0 7.0 0.00 0.00 0.00 82 1020.5
20260507094019 60 100 3.0 4.0 0.00 0.00 0.00 82 1020.6
20260507093041 60 100 1.0 4.0 0.00 0.00 0.00 81 1020.6
20260507093019 60 101 2.0 3.0 0.00 0.00 0.00 82 1020.6
20260507092019 60 105 3.0 4.0 0.00 0.00 0.00 83 1020.8
20260507091541 60 105 2.0 4.0 0.00 0.00 0.00 82 1020.7
20260507091019 60 101 3.0 3.0 0.00 0.00 0.00 82 1020.7
20260507090042 60 90 2.0 4.0 0.00 0.00 0.00 83 1020.6
20260507090040 60 98 3.0 4.0 0.00 0.00 0.00 83 1020.8
20260507085019 60 96 2.0 3.0 0.00 0.00 0.00 84 1020.9
20260507084551 60 99 2.0 4.0 0.00 0.00 0.00 84 1020.7
20260507084019 60 104 2.0 4.0 0.00 0.00 0.00 85 1020.9
20260507083048 59 110 2.0 4.0 0.00 0.00 0.00 86 1020.8
20260507083019 60 113 3.0 3.0 0.00 0.00 0.00 87 1020.9